VOZ1002 YBBN-YMHB

Flight info

Callsign VOZ1002
Flight time 2h 42m
Altitude 38000
Route BN H91 ADMAR Q78 OLTIN/N0460F370 H201 TESAT/N0457F380 H65 WOL H20 MOTRA/N0395F200 W407 TASUM
Aircraft B738/M-SDE2E3FGHIRWXY/LB1

Departure

Time 2026-04-22 02:06
Airport Brisbane International Airport (YBBN)

Arrival

Time 2026-04-22 04:48
Airport Hobart International Airport (YMHB)
Time Latitude Longitude Altitude Speed Heading
2026-04-22 01:30 -27.38533 153.12126 17 ft 0 kts 290°
2026-04-22 01:56 -27.38538 153.12143 17 ft 4 kts 281°
2026-04-22 01:57 -27.38539 153.12172 17 ft 4 kts 251°
2026-04-22 01:57 -27.38525 153.12196 17 ft 4 kts 221°
2026-04-22 01:57 -27.38504 153.12215 17 ft 4 kts 223°
2026-04-22 01:57 -27.38489 153.12238 19 ft 4 kts 256°
2026-04-22 01:58 -27.38489 153.12267 17 ft 4 kts 289°
2026-04-22 01:58 -27.38495 153.12284 20 ft 0 kts 296°
2026-04-22 02:00 -27.38486 153.12267 17 ft 5 kts 309°
2026-04-22 02:00 -27.38453 153.12262 17 ft 6 kts 24°
2026-04-22 02:01 -27.38433 153.12300 17 ft 6 kts 84°
2026-04-22 02:01 -27.38433 153.12354 17 ft 9 kts 91°
2026-04-22 02:01 -27.38449 153.12429 18 ft 11 kts 116°
2026-04-22 02:01 -27.38440 153.12505 18 ft 11 kts 44°
2026-04-22 02:02 -27.38348 153.12559 17 ft 22 kts 26°
2026-04-22 02:02 -27.38212 153.12637 18 ft 22 kts 27°
2026-04-22 02:02 -27.38083 153.12712 18 ft 21 kts 26°
2026-04-22 02:02 -27.37954 153.12784 17 ft 20 kts 27°
2026-04-22 02:03 -27.37830 153.12856 17 ft 20 kts 26°
2026-04-22 02:03 -27.37699 153.12930 17 ft 23 kts 27°
2026-04-22 02:03 -27.37548 153.13018 17 ft 26 kts 27°
2026-04-22 02:03 -27.37395 153.13105 19 ft 14 kts 26°
2026-04-22 02:04 -27.37263 153.13217 17 ft 7 kts 102°
2026-04-22 02:04 -27.37295 153.13287 17 ft 13 kts 118°
2026-04-22 02:04 -27.37340 153.13375 19 ft 13 kts 129°
2026-04-22 02:05 -27.37411 153.13429 20 ft 12 kts 160°
2026-04-22 02:05 -27.37494 153.13416 21 ft 13 kts 205°
2026-04-22 02:05 -27.37682 153.13308 22 ft 62 kts 206°
2026-04-22 02:05 -27.38275 153.12969 23 ft 130 kts 206°
2026-04-22 02:06 -27.39249 153.12399 99 ft 177 kts 205°
2026-04-22 02:06 -27.40331 153.11755 876 ft 176 kts 202°
2026-04-22 02:06 -27.41378 153.11171 1876 ft 169 kts 202°
2026-04-22 02:06 -27.42582 153.10961 2207 ft 192 kts 167°
2026-04-22 02:07 -27.43850 153.11614 2539 ft 208 kts 153°
2026-04-22 02:07 -27.45168 153.12370 3050 ft 215 kts 153°
2026-04-22 02:07 -27.46520 153.13145 3625 ft 221 kts 154°
2026-04-22 02:07 -27.47888 153.13930 4393 ft 221 kts 154°
2026-04-22 02:08 -27.49283 153.14659 5168 ft 222 kts 167°
2026-04-22 02:08 -27.50847 153.14727 5659 ft 237 kts 188°
2026-04-22 02:08 -27.52548 153.14343 6043 ft 257 kts 192°
2026-04-22 02:08 -27.54309 153.13876 6754 ft 262 kts 193°
2026-04-22 02:09 -27.56074 153.13370 7553 ft 264 kts 197°
2026-04-22 02:09 -27.57825 153.12693 8252 ft 269 kts 199°
2026-04-22 02:09 -27.59598 153.11971 8994 ft 273 kts 199°
2026-04-22 02:09 -27.61394 153.11246 9753 ft 276 kts 199°
2026-04-22 02:10 -27.63237 153.10562 10384 ft 284 kts 196°
2026-04-22 02:10 -27.65180 153.09912 10580 ft 306 kts 195°
2026-04-22 02:10 -27.67284 153.09225 10846 ft 324 kts 195°
2026-04-22 02:10 -27.69520 153.08492 11008 ft 345 kts 196°
2026-04-22 02:11 -27.71885 153.07711 11192 ft 362 kts 196°
2026-04-22 02:11 -27.74338 153.06895 11605 ft 372 kts 196°
2026-04-22 02:11 -27.76835 153.06062 12142 ft 376 kts 196°
2026-04-22 02:11 -27.79349 153.05221 12828 ft 377 kts 196°
2026-04-22 02:12 -27.81873 153.04374 13469 ft 380 kts 197°
2026-04-22 02:12 -27.84384 153.03393 14044 ft 384 kts 200°
2026-04-22 02:12 -27.86887 153.02291 14605 ft 387 kts 202°
2026-04-22 02:12 -27.89390 153.01158 15215 ft 389 kts 202°
2026-04-22 02:13 -27.91908 153.00022 15828 ft 390 kts 202°
2026-04-22 02:13 -27.94439 152.98893 16433 ft 392 kts 202°
2026-04-22 02:13 -27.96127 152.98146 16817 ft 394 kts 202°
2026-04-22 02:13 -27.98694 152.97017 17367 ft 397 kts 202°
2026-04-22 02:14 -28.01277 152.95885 17881 ft 400 kts 202°
2026-04-22 02:14 -28.03880 152.94746 18434 ft 402 kts 202°
2026-04-22 02:14 -28.06499 152.93598 18900 ft 404 kts 202°
2026-04-22 02:14 -28.09127 152.92446 19371 ft 406 kts 202°
2026-04-22 02:15 -28.11763 152.91281 19805 ft 408 kts 202°
2026-04-22 02:15 -28.14417 152.90101 20230 ft 411 kts 202°
2026-04-22 02:15 -28.17086 152.88912 20654 ft 413 kts 202°
2026-04-22 02:15 -28.19765 152.87716 21120 ft 415 kts 202°
2026-04-22 02:16 -28.22458 152.86515 21535 ft 417 kts 202°
2026-04-22 02:16 -28.25169 152.85304 21941 ft 420 kts 202°
2026-04-22 02:16 -28.27895 152.84088 22348 ft 422 kts 202°
2026-04-22 02:16 -28.30634 152.82865 22734 ft 424 kts 202°
2026-04-22 02:17 -28.33383 152.81637 23137 ft 426 kts 203°
2026-04-22 02:17 -28.36145 152.80403 23516 ft 427 kts 203°
2026-04-22 02:17 -28.38917 152.79164 23865 ft 429 kts 203°
2026-04-22 02:17 -28.41700 152.77919 24146 ft 431 kts 203°
2026-04-22 02:18 -28.44496 152.76668 24459 ft 432 kts 203°
2026-04-22 02:18 -28.47294 152.75415 24801 ft 433 kts 203°
2026-04-22 02:18 -28.50100 152.74157 25124 ft 434 kts 203°
2026-04-22 02:18 -28.52910 152.72897 25430 ft 435 kts 203°
2026-04-22 02:19 -28.55733 152.71630 25697 ft 437 kts 203°
2026-04-22 02:19 -28.58565 152.70359 25978 ft 438 kts 203°
2026-04-22 02:19 -28.61400 152.69086 26268 ft 439 kts 203°
2026-04-22 02:19 -28.64239 152.67810 26607 ft 438 kts 203°
2026-04-22 02:20 -28.67069 152.66538 27031 ft 436 kts 204°
2026-04-22 02:20 -28.69882 152.65273 27496 ft 433 kts 204°
2026-04-22 02:20 -28.72675 152.64015 27942 ft 431 kts 204°
2026-04-22 02:20 -28.75456 152.62762 28370 ft 429 kts 204°
2026-04-22 02:21 -28.78225 152.61513 28809 ft 427 kts 204°
2026-04-22 02:21 -28.80981 152.60271 29264 ft 425 kts 204°
2026-04-22 02:21 -28.83725 152.59033 29702 ft 423 kts 204°
2026-04-22 02:21 -28.86400 152.57673 30166 ft 419 kts 209°
2026-04-22 02:22 -28.88982 152.56152 30587 ft 417 kts 210°
2026-04-22 02:22 -28.91548 152.54615 30933 ft 416 kts 210°
2026-04-22 02:22 -28.94104 152.53077 31251 ft 415 kts 210°
2026-04-22 02:22 -28.96654 152.51546 31589 ft 414 kts 210°
2026-04-22 02:23 -28.99204 152.50020 31911 ft 413 kts 210°
2026-04-22 02:23 -29.01744 152.48502 32258 ft 411 kts 210°
2026-04-22 02:23 -29.04276 152.46992 32644 ft 409 kts 210°
2026-04-22 02:23 -29.06791 152.45493 32985 ft 408 kts 210°
2026-04-22 02:24 -29.09306 152.43994 33305 ft 407 kts 210°
2026-04-22 02:24 -29.11814 152.42499 33642 ft 406 kts 210°
2026-04-22 02:24 -29.14313 152.41008 33946 ft 405 kts 210°
2026-04-22 02:24 -29.16776 152.39537 34246 ft 405 kts 210°
2026-04-22 02:25 -29.19269 152.38048 34502 ft 404 kts 210°
2026-04-22 02:25 -29.21753 152.36564 34784 ft 402 kts 210°
2026-04-22 02:25 -29.24220 152.35089 35134 ft 399 kts 210°
2026-04-22 02:25 -29.26680 152.33617 35367 ft 398 kts 210°
2026-04-22 02:26 -29.29134 152.32148 35578 ft 399 kts 211°
2026-04-22 02:26 -29.31597 152.30672 35747 ft 400 kts 210°
2026-04-22 02:26 -29.34063 152.29193 35934 ft 400 kts 210°
2026-04-22 02:26 -29.36528 152.27716 36156 ft 399 kts 211°
2026-04-22 02:27 -29.38988 152.26240 36207 ft 400 kts 211°
2026-04-22 02:27 -29.43886 152.23298 36229 ft 400 kts 211°
2026-04-22 02:28 -29.48796 152.20346 36237 ft 397 kts 211°
2026-04-22 02:28 -29.53702 152.17393 36238 ft 398 kts 211°
2026-04-22 02:29 -29.58610 152.14437 36230 ft 398 kts 211°
2026-04-22 02:29 -29.63507 152.11484 36235 ft 397 kts 211°
2026-04-22 02:30 -29.68403 152.08540 36233 ft 398 kts 208°
2026-04-22 02:30 -29.73676 152.06493 36235 ft 404 kts 197°
2026-04-22 02:31 -29.79134 152.05110 36237 ft 404 kts 197°
2026-04-22 02:31 -29.84624 152.03706 36250 ft 404 kts 197°
2026-04-22 02:32 -29.90112 152.02280 36228 ft 404 kts 198°
2026-04-22 02:32 -29.95587 152.00849 36234 ft 404 kts 197°
2026-04-22 02:33 -30.01073 151.99411 36242 ft 404 kts 197°
2026-04-22 02:33 -30.06561 151.97972 36239 ft 405 kts 197°
2026-04-22 02:34 -30.12058 151.96529 36246 ft 405 kts 197°
2026-04-22 02:34 -30.17559 151.95083 36252 ft 406 kts 197°
2026-04-22 02:35 -30.23032 151.93643 36251 ft 406 kts 197°
2026-04-22 02:35 -30.28541 151.92192 36254 ft 406 kts 197°
2026-04-22 02:36 -30.34055 151.90744 36255 ft 407 kts 197°
2026-04-22 02:36 -30.39584 151.89339 36252 ft 407 kts 197°
2026-04-22 02:37 -30.45112 151.87943 36252 ft 407 kts 197°
2026-04-22 02:37 -30.50642 151.86540 36253 ft 406 kts 197°
2026-04-22 02:38 -30.56162 151.85136 36253 ft 406 kts 197°
2026-04-22 02:38 -30.61685 151.83727 36256 ft 406 kts 197°
2026-04-22 02:39 -30.67203 151.82319 36254 ft 406 kts 197°
2026-04-22 02:39 -30.72719 151.80909 36261 ft 406 kts 197°
2026-04-22 02:40 -30.78096 151.79533 36255 ft 406 kts 197°
2026-04-22 02:40 -30.83602 151.78122 36254 ft 405 kts 197°
2026-04-22 02:41 -30.89076 151.76718 36258 ft 405 kts 197°
2026-04-22 02:41 -30.94583 151.75304 36261 ft 405 kts 197°
2026-04-22 02:42 -31.00089 151.73887 36272 ft 406 kts 197°
2026-04-22 02:42 -31.05606 151.72467 36262 ft 406 kts 197°
2026-04-22 02:43 -31.11117 151.71047 36276 ft 406 kts 197°
2026-04-22 02:43 -31.16634 151.69623 36275 ft 406 kts 197°
2026-04-22 02:44 -31.22154 151.68197 36278 ft 407 kts 197°
2026-04-22 02:44 -31.27681 151.66768 36287 ft 407 kts 197°
2026-04-22 02:45 -31.33209 151.65336 36286 ft 407 kts 197°
2026-04-22 02:45 -31.38749 151.63899 36289 ft 408 kts 197°
2026-04-22 02:46 -31.44289 151.62462 36292 ft 408 kts 197°
2026-04-22 02:46 -31.49790 151.61032 36293 ft 407 kts 197°
2026-04-22 02:47 -31.55326 151.59591 36294 ft 408 kts 197°
2026-04-22 02:47 -31.60869 151.58148 36281 ft 408 kts 197°
2026-04-22 02:48 -31.66406 151.56703 36292 ft 408 kts 197°
2026-04-22 02:48 -31.71949 151.55254 36289 ft 408 kts 197°
2026-04-22 02:49 -31.77488 151.53806 36288 ft 408 kts 197°
2026-04-22 02:49 -31.82961 151.52149 36291 ft 405 kts 200°
2026-04-22 02:50 -31.88299 151.50200 36289 ft 404 kts 201°
2026-04-22 02:50 -31.93668 151.48218 36296 ft 404 kts 201°
2026-04-22 02:51 -31.99036 151.46260 36301 ft 404 kts 201°
2026-04-22 02:51 -32.04416 151.44308 36305 ft 405 kts 200°
2026-04-22 02:52 -32.09808 151.42354 36311 ft 406 kts 200°
2026-04-22 02:52 -32.15218 151.40390 36301 ft 407 kts 200°
2026-04-22 02:53 -32.20632 151.38423 36298 ft 408 kts 200°
2026-04-22 02:53 -32.26056 151.36449 36306 ft 408 kts 200°
2026-04-22 02:54 -32.31481 151.34473 36285 ft 408 kts 200°
2026-04-22 02:54 -32.36903 151.32495 36299 ft 408 kts 200°
2026-04-22 02:55 -32.42328 151.30513 36306 ft 408 kts 200°
2026-04-22 02:55 -32.47756 151.28528 36304 ft 408 kts 200°
2026-04-22 02:56 -32.53182 151.26545 36303 ft 408 kts 199°
2026-04-22 02:56 -32.58786 151.25512 36313 ft 415 kts 187°
2026-04-22 02:57 -32.64554 151.25236 36310 ft 415 kts 187°
2026-04-22 02:57 -32.70316 151.24946 36305 ft 414 kts 187°
2026-04-22 02:58 -32.76074 151.24630 36307 ft 414 kts 187°
2026-04-22 02:58 -32.81823 151.24305 36298 ft 413 kts 187°
2026-04-22 02:59 -32.87567 151.23980 36310 ft 413 kts 187°
2026-04-22 02:59 -32.93309 151.23656 36317 ft 413 kts 187°
2026-04-22 03:00 -32.99055 151.23365 36319 ft 413 kts 187°
2026-04-22 03:00 -33.04804 151.23100 36316 ft 413 kts 187°
2026-04-22 03:01 -33.10545 151.22803 36323 ft 413 kts 187°
2026-04-22 03:01 -33.16259 151.22468 36313 ft 414 kts 187°
2026-04-22 03:02 -33.22013 151.22139 36320 ft 414 kts 187°
2026-04-22 03:02 -33.27767 151.21813 36321 ft 414 kts 187°
2026-04-22 03:03 -33.33523 151.21486 36316 ft 414 kts 187°
2026-04-22 03:03 -33.39290 151.21157 36321 ft 415 kts 187°
2026-04-22 03:04 -33.45060 151.20847 36329 ft 415 kts 186°
2026-04-22 03:04 -33.50827 151.20554 36332 ft 415 kts 186°
2026-04-22 03:05 -33.56595 151.20260 36324 ft 415 kts 186°
2026-04-22 03:05 -33.62351 151.19964 36343 ft 413 kts 186°
2026-04-22 03:06 -33.66767 151.19735 36333 ft 414 kts 186°
2026-04-22 03:06 -33.70055 151.19565 36341 ft 414 kts 186°
2026-04-22 03:07 -33.75792 151.19267 36342 ft 414 kts 186°
2026-04-22 03:07 -33.81542 151.18969 36350 ft 414 kts 186°
2026-04-22 03:08 -33.87257 151.18672 36347 ft 414 kts 186°
2026-04-22 03:08 -33.92973 151.18081 36347 ft 410 kts 195°
2026-04-22 03:09 -33.98333 151.15903 36343 ft 406 kts 208°
2026-04-22 03:09 -34.03328 151.12718 36343 ft 406 kts 209°
2026-04-22 03:10 -34.08317 151.09500 36343 ft 407 kts 209°
2026-04-22 03:10 -34.12479 151.06834 36345 ft 408 kts 209°
2026-04-22 03:11 -34.18306 151.03118 36347 ft 408 kts 208°
2026-04-22 03:11 -34.22284 151.00582 36343 ft 409 kts 208°
2026-04-22 03:12 -34.27284 150.97391 36341 ft 409 kts 208°
2026-04-22 03:12 -34.34836 150.92562 36344 ft 409 kts 208°
2026-04-22 03:13 -34.39869 150.89337 36347 ft 410 kts 208°
2026-04-22 03:13 -34.44908 150.86105 36347 ft 410 kts 208°
2026-04-22 03:14 -34.49950 150.82865 36344 ft 410 kts 208°
2026-04-22 03:14 -34.54988 150.79625 36343 ft 410 kts 208°
2026-04-22 03:15 -34.59977 150.76365 36344 ft 410 kts 209°
2026-04-22 03:15 -34.64983 150.73041 36344 ft 410 kts 209°
2026-04-22 03:16 -34.69994 150.69712 36352 ft 411 kts 209°
2026-04-22 03:16 -34.75009 150.66382 36357 ft 411 kts 209°
2026-04-22 03:17 -34.80025 150.63049 36347 ft 411 kts 209°
2026-04-22 03:17 -34.85046 150.59707 36350 ft 411 kts 209°
2026-04-22 03:18 -34.90069 150.56359 36355 ft 411 kts 209°
2026-04-22 03:18 -34.95156 150.53159 36351 ft 412 kts 203°
2026-04-22 03:19 -35.00683 150.51254 36361 ft 414 kts 195°
2026-04-22 03:19 -35.06293 150.49636 36359 ft 414 kts 195°
2026-04-22 03:20 -35.11867 150.48008 36351 ft 415 kts 195°
2026-04-22 03:20 -35.17474 150.46347 36355 ft 415 kts 195°
2026-04-22 03:21 -35.23084 150.44675 36358 ft 415 kts 195°
2026-04-22 03:21 -35.28698 150.42996 36359 ft 415 kts 195°
2026-04-22 03:22 -35.34310 150.41316 36358 ft 415 kts 195°
2026-04-22 03:22 -35.39926 150.39633 36361 ft 416 kts 195°
2026-04-22 03:23 -35.45544 150.37946 36364 ft 416 kts 195°
2026-04-22 03:23 -35.51165 150.36256 36358 ft 416 kts 195°
2026-04-22 03:24 -35.56785 150.34565 36359 ft 416 kts 195°
2026-04-22 03:24 -35.62407 150.32870 36363 ft 416 kts 195°
2026-04-22 03:25 -35.68031 150.31172 36361 ft 416 kts 195°
2026-04-22 03:25 -35.73653 150.29472 36364 ft 416 kts 195°
2026-04-22 03:26 -35.79242 150.27780 36362 ft 416 kts 195°
2026-04-22 03:26 -35.84868 150.26074 36364 ft 416 kts 195°
2026-04-22 03:27 -35.90492 150.24366 36359 ft 416 kts 195°
2026-04-22 03:27 -35.96119 150.22655 36358 ft 417 kts 195°
2026-04-22 03:28 -36.01750 150.20940 36360 ft 417 kts 195°
2026-04-22 03:28 -36.07341 150.19234 36359 ft 417 kts 195°
2026-04-22 03:29 -36.12978 150.17513 36359 ft 417 kts 195°
2026-04-22 03:29 -36.18616 150.15788 36357 ft 418 kts 195°
2026-04-22 03:30 -36.24261 150.14059 36362 ft 418 kts 195°
2026-04-22 03:30 -36.29916 150.12324 36359 ft 419 kts 195°
2026-04-22 03:31 -36.35574 150.10585 36359 ft 419 kts 195°
2026-04-22 03:31 -36.41238 150.08842 36357 ft 419 kts 195°
2026-04-22 03:32 -36.46903 150.07096 36359 ft 420 kts 195°
2026-04-22 03:32 -36.52531 150.05359 36362 ft 420 kts 195°
2026-04-22 03:33 -36.58199 150.03606 36363 ft 420 kts 195°
2026-04-22 03:33 -36.63873 150.01850 36362 ft 420 kts 195°
2026-04-22 03:34 -36.69548 150.00090 36358 ft 420 kts 195°
2026-04-22 03:34 -36.75226 149.98327 36358 ft 420 kts 195°
2026-04-22 03:35 -36.80904 149.96561 36354 ft 421 kts 195°
2026-04-22 03:35 -36.86548 149.94803 36356 ft 421 kts 195°
2026-04-22 03:36 -36.92232 149.93030 36360 ft 421 kts 195°
2026-04-22 03:36 -36.97916 149.91254 36361 ft 421 kts 195°
2026-04-22 03:37 -37.03609 149.89472 36361 ft 422 kts 195°
2026-04-22 03:37 -37.09303 149.87688 36356 ft 422 kts 195°
2026-04-22 03:38 -37.15005 149.85898 36361 ft 423 kts 195°
2026-04-22 03:38 -37.20712 149.84103 36357 ft 423 kts 195°
2026-04-22 03:39 -37.26423 149.82305 36355 ft 423 kts 195°
2026-04-22 03:39 -37.32138 149.80502 36360 ft 423 kts 195°
2026-04-22 03:40 -37.37853 149.78697 36355 ft 424 kts 195°
2026-04-22 03:40 -37.43575 149.76887 36359 ft 424 kts 195°
2026-04-22 03:41 -37.49302 149.75072 36354 ft 425 kts 195°
2026-04-22 03:41 -37.55032 149.73253 36358 ft 425 kts 195°
2026-04-22 03:42 -37.60764 149.71419 36353 ft 425 kts 196°
2026-04-22 03:42 -37.66462 149.69383 36356 ft 425 kts 197°
2026-04-22 03:43 -37.72141 149.67273 36355 ft 426 kts 197°
2026-04-22 03:43 -37.77827 149.65173 36355 ft 426 kts 197°
2026-04-22 03:44 -37.83517 149.63086 36355 ft 426 kts 197°
2026-04-22 03:44 -37.89210 149.61001 36360 ft 426 kts 197°
2026-04-22 03:45 -37.94905 149.58914 36360 ft 426 kts 197°
2026-04-22 03:45 -38.00606 149.56821 36359 ft 427 kts 197°
2026-04-22 03:46 -38.06312 149.54723 36360 ft 427 kts 197°
2026-04-22 03:46 -38.12024 149.52618 36362 ft 428 kts 197°
2026-04-22 03:47 -38.17741 149.50509 36360 ft 428 kts 197°
2026-04-22 03:47 -38.23461 149.48395 36362 ft 428 kts 197°
2026-04-22 03:48 -38.29193 149.46273 36358 ft 429 kts 197°
2026-04-22 03:48 -38.34925 149.44147 36359 ft 429 kts 197°
2026-04-22 03:49 -38.40664 149.42016 36361 ft 430 kts 197°
2026-04-22 03:49 -38.46410 149.39878 36361 ft 430 kts 197°
2026-04-22 03:50 -38.52163 149.37734 36365 ft 431 kts 197°
2026-04-22 03:50 -38.57920 149.35585 36367 ft 431 kts 197°
2026-04-22 03:51 -38.63682 149.33431 36367 ft 432 kts 197°
2026-04-22 03:51 -38.69449 149.31271 36364 ft 432 kts 197°
2026-04-22 03:52 -38.75224 149.29104 36367 ft 433 kts 197°
2026-04-22 03:52 -38.81004 149.26932 36365 ft 433 kts 197°
2026-04-22 03:53 -38.86826 149.24741 36367 ft 433 kts 197°
2026-04-22 03:53 -38.92580 149.22571 36368 ft 434 kts 197°
2026-04-22 03:54 -38.98374 149.20382 36367 ft 434 kts 197°
2026-04-22 03:54 -39.04213 149.18173 36371 ft 435 kts 197°
2026-04-22 03:55 -39.10023 149.15971 36371 ft 435 kts 197°
2026-04-22 03:55 -39.15838 149.13763 36371 ft 436 kts 197°
2026-04-22 03:56 -39.21656 149.11551 36369 ft 436 kts 197°
2026-04-22 03:56 -39.27481 149.09332 36369 ft 437 kts 197°
2026-04-22 03:57 -39.33313 149.07106 36371 ft 437 kts 197°
2026-04-22 03:57 -39.39149 149.04874 36371 ft 438 kts 198°
2026-04-22 03:58 -39.44989 149.02638 36374 ft 438 kts 198°
2026-04-22 03:58 -39.50837 149.00394 36370 ft 438 kts 198°
2026-04-22 03:59 -39.56688 148.98146 36372 ft 439 kts 198°
2026-04-22 03:59 -39.61555 148.96272 36374 ft 439 kts 198°
2026-04-22 04:00 -39.67418 148.94011 36373 ft 440 kts 198°
2026-04-22 04:00 -39.73284 148.91745 36374 ft 440 kts 198°
2026-04-22 04:01 -39.79154 148.89474 36375 ft 440 kts 198°
2026-04-22 04:01 -39.85031 148.87196 36376 ft 441 kts 198°
2026-04-22 04:02 -39.90951 148.84896 36374 ft 441 kts 198°
2026-04-22 04:02 -39.96838 148.82605 36374 ft 442 kts 198°
2026-04-22 04:03 -40.02727 148.80311 36376 ft 442 kts 198°
2026-04-22 04:03 -40.08617 148.78012 36377 ft 442 kts 198°
2026-04-22 04:04 -40.14502 148.75708 36380 ft 442 kts 198°
2026-04-22 04:04 -40.20397 148.73396 36374 ft 442 kts 198°
2026-04-22 04:05 -40.26292 148.71080 36373 ft 442 kts 198°
2026-04-22 04:05 -40.32186 148.68759 36377 ft 443 kts 198°
2026-04-22 04:06 -40.38051 148.66447 36374 ft 443 kts 198°
2026-04-22 04:06 -40.43995 148.64099 36378 ft 443 kts 198°
2026-04-22 04:07 -40.49904 148.61760 36373 ft 444 kts 198°
2026-04-22 04:07 -40.55819 148.59415 36372 ft 444 kts 198°
2026-04-22 04:08 -40.61738 148.57063 36375 ft 445 kts 198°
2026-04-22 04:08 -40.67662 148.54705 36369 ft 445 kts 198°
2026-04-22 04:09 -40.73592 148.52341 36373 ft 445 kts 198°
2026-04-22 04:09 -40.79527 148.49970 36368 ft 446 kts 198°
2026-04-22 04:10 -40.85464 148.47594 36371 ft 446 kts 198°
2026-04-22 04:10 -40.91405 148.45212 36369 ft 446 kts 198°
2026-04-22 04:11 -40.97345 148.42825 36366 ft 446 kts 198°
2026-04-22 04:11 -41.03283 148.40435 36358 ft 446 kts 198°
2026-04-22 04:12 -41.09219 148.38041 36358 ft 446 kts 198°
2026-04-22 04:12 -41.15153 148.35644 36358 ft 446 kts 199°
2026-04-22 04:13 -41.21085 148.33242 36353 ft 445 kts 199°
2026-04-22 04:13 -41.27011 148.30838 36353 ft 445 kts 199°
2026-04-22 04:14 -41.32937 148.28431 36341 ft 445 kts 199°
2026-04-22 04:14 -41.38790 148.25751 36344 ft 444 kts 202°
2026-04-22 04:15 -41.44576 148.22865 36341 ft 444 kts 202°
2026-04-22 04:15 -41.50328 148.19997 36332 ft 445 kts 202°
2026-04-22 04:16 -41.59034 148.15706 36322 ft 445 kts 202°
2026-04-22 04:17 -41.64845 148.12850 36323 ft 445 kts 202°
2026-04-22 04:17 -41.70656 148.09987 36325 ft 445 kts 202°
2026-04-22 04:18 -41.76471 148.07116 36319 ft 446 kts 202°
2026-04-22 04:18 -41.82295 148.04235 36315 ft 446 kts 202°
2026-04-22 04:19 -41.88119 148.01348 36311 ft 447 kts 202°
2026-04-22 04:19 -41.93948 147.98453 36306 ft 447 kts 202°
2026-04-22 04:20 -41.99779 147.95552 36296 ft 447 kts 202°
2026-04-22 04:20 -42.02721 147.94084 35776 ft 453 kts 202°
2026-04-22 04:20 -42.05627 147.92634 35184 ft 451 kts 202°
2026-04-22 04:20 -42.08563 147.91169 34559 ft 450 kts 202°
2026-04-22 04:21 -42.11494 147.89706 33855 ft 449 kts 202°
2026-04-22 04:21 -42.14421 147.88241 33124 ft 448 kts 202°
2026-04-22 04:21 -42.17344 147.86776 32426 ft 448 kts 202°
2026-04-22 04:21 -42.20262 147.85314 31722 ft 447 kts 202°
2026-04-22 04:22 -42.23183 147.83847 31033 ft 449 kts 203°
2026-04-22 04:22 -42.26118 147.82372 30241 ft 450 kts 203°
2026-04-22 04:22 -42.29058 147.80893 29361 ft 454 kts 203°
2026-04-22 04:22 -42.32041 147.79391 28752 ft 461 kts 203°
2026-04-22 04:23 -42.35082 147.77857 28161 ft 471 kts 203°
2026-04-22 04:23 -42.38141 147.76317 27384 ft 468 kts 203°
2026-04-22 04:23 -42.41170 147.74795 26797 ft 462 kts 203°
2026-04-22 04:23 -42.44165 147.73288 26215 ft 455 kts 203°
2026-04-22 04:24 -42.45126 147.72817 26057 ft 452 kts 201°
2026-04-22 04:24 -42.47901 147.71890 25887 ft 432 kts 191°
2026-04-22 04:24 -42.50821 147.71531 25743 ft 411 kts 183°
2026-04-22 04:24 -42.53612 147.71740 25600 ft 393 kts 176°
2026-04-22 04:25 -42.56278 147.72102 25502 ft 379 kts 176°
2026-04-22 04:25 -42.58839 147.72443 25391 ft 362 kts 176°
2026-04-22 04:25 -42.61302 147.72754 25265 ft 351 kts 176°
2026-04-22 04:25 -42.63714 147.73046 25044 ft 346 kts 176°
2026-04-22 04:26 -42.66114 147.73332 24704 ft 346 kts 176°
2026-04-22 04:26 -42.68513 147.73620 24374 ft 346 kts 175°
2026-04-22 04:26 -42.70819 147.74507 24039 ft 347 kts 151°
2026-04-22 04:26 -42.72681 147.76534 23713 ft 343 kts 127°
2026-04-22 04:27 -42.73839 147.79317 23347 ft 336 kts 104°
2026-04-22 04:27 -42.74172 147.82404 22968 ft 328 kts 83°
2026-04-22 04:27 -42.73703 147.85335 22612 ft 318 kts 62°
2026-04-22 04:27 -42.72537 147.87828 22258 ft 309 kts 42°
2026-04-22 04:28 -42.70873 147.89579 21937 ft 300 kts 24°
2026-04-22 04:28 -42.68952 147.90580 21629 ft 294 kts
2026-04-22 04:28 -42.66942 147.90798 21297 ft 289 kts 355°
2026-04-22 04:28 -42.64950 147.90553 20997 ft 287 kts 351°
2026-04-22 04:29 -42.62976 147.90229 20694 ft 285 kts 351°
2026-04-22 04:29 -42.61011 147.89918 20392 ft 284 kts 352°
2026-04-22 04:29 -42.59054 147.89625 20102 ft 282 kts 352°
2026-04-22 04:29 -42.57114 147.89292 19795 ft 280 kts 344°
2026-04-22 04:30 -42.55349 147.88237 19500 ft 277 kts 326°
2026-04-22 04:30 -42.53904 147.86531 19246 ft 275 kts 311°
2026-04-22 04:30 -42.52856 147.84363 18949 ft 276 kts 297°
2026-04-22 04:30 -42.52302 147.81865 18647 ft 280 kts 281°
2026-04-22 04:31 -42.52342 147.79212 18323 ft 286 kts 263°
2026-04-22 04:31 -42.53037 147.76634 18005 ft 291 kts 244°
2026-04-22 04:31 -42.54307 147.74522 17699 ft 297 kts 225°
2026-04-22 04:31 -42.56074 147.73031 17381 ft 303 kts 206°
2026-04-22 04:32 -42.58116 147.72282 17059 ft 307 kts 187°
2026-04-22 04:32 -42.60256 147.72346 16764 ft 309 kts 177°
2026-04-22 04:32 -42.62392 147.72670 16470 ft 308 kts 175°
2026-04-22 04:32 -42.64515 147.73015 16204 ft 306 kts 176°
2026-04-22 04:33 -42.66627 147.73337 15935 ft 305 kts 176°
2026-04-22 04:33 -42.68734 147.73652 15652 ft 304 kts 173°
2026-04-22 04:33 -42.70720 147.74633 15331 ft 308 kts 146°
2026-04-22 04:33 -42.72221 147.76660 15055 ft 304 kts 120°
2026-04-22 04:34 -42.72971 147.79295 14812 ft 297 kts 95°
2026-04-22 04:34 -42.72886 147.82046 14509 ft 289 kts 70°
2026-04-22 04:34 -42.72036 147.84443 14217 ft 278 kts 46°
2026-04-22 04:34 -42.70625 147.86154 13932 ft 269 kts 25°
2026-04-22 04:35 -42.68929 147.87116 13647 ft 262 kts
2026-04-22 04:35 -42.67142 147.87306 13347 ft 256 kts 354°
2026-04-22 04:35 -42.65366 147.87089 13296 ft 261 kts 351°
2026-04-22 04:35 -42.63563 147.86804 13257 ft 259 kts 351°
2026-04-22 04:36 -42.61782 147.86525 13102 ft 255 kts 351°
2026-04-22 04:36 -42.60021 147.86260 12774 ft 256 kts 351°
2026-04-22 04:36 -42.58257 147.86003 12426 ft 253 kts 351°
2026-04-22 04:36 -42.56506 147.85751 11903 ft 255 kts 351°
2026-04-22 04:37 -42.54745 147.85496 11459 ft 254 kts 349°
2026-04-22 04:37 -42.53106 147.84727 11025 ft 249 kts 327°
2026-04-22 04:37 -42.51788 147.83247 10584 ft 247 kts 309°
2026-04-22 04:37 -42.50876 147.81280 10066 ft 249 kts 291°
2026-04-22 04:38 -42.50503 147.78995 9766 ft 248 kts 272°
2026-04-22 04:38 -42.50718 147.76708 9563 ft 246 kts 253°
2026-04-22 04:38 -42.51506 147.74654 9299 ft 247 kts 234°
2026-04-22 04:38 -42.52784 147.73083 8972 ft 253 kts 214°
2026-04-22 04:39 -42.54376 147.72099 8690 ft 252 kts 199°
2026-04-22 04:39 -42.56100 147.71865 8257 ft 257 kts 179°
2026-04-22 04:39 -42.57880 147.72097 7856 ft 257 kts 178°
2026-04-22 04:39 -42.59650 147.72354 7448 ft 255 kts 178°
2026-04-22 04:40 -42.61410 147.72610 7056 ft 254 kts 178°
2026-04-22 04:40 -42.63163 147.72861 6692 ft 253 kts 178°
2026-04-22 04:40 -42.64901 147.73108 6366 ft 250 kts 179°
2026-04-22 04:40 -42.66623 147.73351 5991 ft 248 kts 179°
2026-04-22 04:41 -42.68339 147.73592 5601 ft 247 kts 179°
2026-04-22 04:41 -42.70032 147.73554 5299 ft 238 kts 191°
2026-04-22 04:41 -42.71661 147.73312 5145 ft 234 kts 193°
2026-04-22 04:41 -42.73260 147.73070 5025 ft 228 kts 193°
2026-04-22 04:42 -42.74836 147.72830 4789 ft 229 kts 193°
2026-04-22 04:42 -42.76411 147.72605 4558 ft 225 kts 193°
2026-04-22 04:42 -42.77951 147.72398 4261 ft 217 kts 193°
2026-04-22 04:42 -42.79415 147.72207 4021 ft 206 kts 193°
2026-04-22 04:43 -42.80815 147.72021 3760 ft 198 kts 195°
2026-04-22 04:43 -42.82012 147.71421 3519 ft 172 kts 224°
2026-04-22 04:43 -42.82960 147.70478 3349 ft 166 kts 223°
2026-04-22 04:43 -42.83904 147.69576 3134 ft 166 kts 223°
2026-04-22 04:44 -42.84853 147.68671 2946 ft 168 kts 224°
2026-04-22 04:44 -42.85795 147.67763 2733 ft 168 kts 221°
2026-04-22 04:44 -42.86757 147.66840 2503 ft 170 kts 223°
2026-04-22 04:44 -42.87643 147.65864 2279 ft 157 kts 233°
2026-04-22 04:45 -42.88289 147.64711 1918 ft 154 kts 247°
2026-04-22 04:45 -42.88688 147.63460 1743 ft 134 kts 261°
2026-04-22 04:45 -42.88889 147.62291 1643 ft 124 kts 268°
2026-04-22 04:45 -42.88947 147.61084 1536 ft 136 kts 279°
2026-04-22 04:46 -42.88833 147.59799 1370 ft 132 kts 290°
2026-04-22 04:46 -42.88567 147.58640 1210 ft 126 kts 298°
2026-04-22 04:46 -42.88185 147.57583 1065 ft 124 kts 308°
2026-04-22 04:46 -42.87622 147.56691 915 ft 125 kts 314°
2026-04-22 04:47 -42.87034 147.55831 737 ft 124 kts 317°
2026-04-22 04:47 -42.86425 147.54996 563 ft 123 kts 319°
2026-04-22 04:47 -42.85806 147.54176 402 ft 127 kts 318°
2026-04-22 04:47 -42.85220 147.53357 242 ft 117 kts 318°
2026-04-22 04:48 -42.84640 147.52563 96 ft 121 kts 319°
2026-04-22 04:48 -42.84063 147.51780 22 ft 107 kts 318°
2026-04-22 04:48 -42.83625 147.51197 21 ft 67 kts 316°
2026-04-22 04:48 -42.83376 147.50856 22 ft 33 kts 313°
2026-04-22 04:49 -42.83312 147.50755 21 ft 14 kts 296°
2026-04-22 04:49 -42.83299 147.50678 21 ft 9 kts 258°
2026-04-22 04:49 -42.83358 147.50581 21 ft 12 kts 223°
2026-04-22 04:49 -42.83431 147.50554 21 ft 12 kts 157°
2026-04-22 04:50 -42.83485 147.50630 22 ft 11 kts 132°
2026-04-22 04:50 -42.83522 147.50682 23 ft 11 kts 135°
2026-04-22 04:50 -42.83590 147.50677 23 ft 11 kts 222°
2026-04-22 04:50 -42.83597 147.50669 22 ft 0 kts 222°
2026-04-22 04:51 -42.83607 147.50653 23 ft 7 kts 231°
2026-04-22 04:51 -42.83640 147.50603 21 ft 4 kts 224°
2026-04-22 04:51 -42.83649 147.50592 22 ft 0 kts 225°